Location: ??
(34.7707°N, 135.6540°E)
Time: 07:55:12
(UTC+00:00)

Meteor 1-23 Rocket - Pass Details

Date: 09 April 2020
Orbit: 839 x 886 km, 81.3° (Epoch: 25 May)

Event Time Altitude Azimuth Distance (km) Brightness Sun altitude
Exits shadow 18:48:59 10° 179° (S) 2,519 6.4 -20.9°
Reaches altitude 10° 18:49:02 10° 179° (S) 2,501 6.4 -20.9°
Maximum altitude 18:54:41 72° 96° (E) 917 4.5 -19.9°
Drops below altitude 10° 19:00:27 10° 13° (NNE) 2,544 7.2 -18.8°
Sets 19:02:55 0° 11° (N) 3,490 7.9 -18.4°
